Latest Weather Observations for Yarrawonga

IDV60801

Issued at 5:05 pm EDT Friday 31 October 2014 (issued every 30 minutes, with the page automatically refreshed every 10 minutes)

About weather observations | Map of weather stations | Latest weather observations for VIC | Other Formats
Station Details ID: 081124 Name: YARRAWONGA Lat: -36.03 Lon: 146.03 Height: 128.9 m
Data from the previous 72 hours. | See also: Recent months at Yarrawonga
Date/Time
EDT
Temp
°C
App
Temp
°C
Dew
Point
Rel
Hum
%
Delta-T
°C
Wind Press
QNH
hPa
Press
MSL
hPa
Rain
since 9 am
mm
Dir
 
Spd
km/h
Gust
km/h
Spd
kts
Gust
kts
31/05:00pm 34.4 28.9 0.9 12 16.9 NW 19 30 10 16 1002.8 1002.7 0.0
31/04:30pm 33.2 29.1 2.1 14 15.9 WNW 13 22 7 12 1003.3 1003.2 0.0
31/04:00pm 32.7 28.1 1.7 14 15.7 NW 15 28 8 15 1003.5 1003.4 0.0
31/03:30pm 32.7 28.7 2.7 15 15.3 NW 13 19 7 10 1004.1 1004.0 0.0
31/03:00pm 32.6 28.6 2.6 15 15.4 WNW 13 20 7 11 1004.7 1004.6 0.0
31/02:30pm 32.1 26.7 1.3 14 15.3 NW 19 28 10 15 1005.4 1005.3 0.0
31/02:00pm 32.1 27.8 1.3 14 15.4 NNW 13 22 7 12 1005.8 1005.7 0.0
31/01:30pm 32.6 26.9 0.6 13 15.8 N 20 30 11 16 1006.4 1006.3 0.0
31/01:00pm 32.7 29.1 2.7 15 15.4 N 11 20 6 11 1007.1 1006.9 0.0
31/12:30pm 31.2 27.7 3.3 17 14.3 N 11 19 6 10 1007.8 1007.6 0.0
31/12:00pm 30.1 28.1 7.3 24 12.4 ENE 7 17 4 9 1008.4 1008.3 0.0
31/11:30am 27.2 24.3 6.6 27 10.9 ENE 11 15 6 8 1009.1 1009.0 0.0
31/11:00am 26.8 23.6 6.8 28 10.6 ENE 13 17 7 9 1009.6 1009.5 0.0
31/10:30am 25.1 22.7 6.8 31 9.6 E 9 17 5 9 1010.3 1010.2 0.0
31/10:00am 22.5 19.8 7.5 38 7.9 ENE 11 17 6 9 1010.7 1010.6 0.0
31/09:30am 21.3 18.5 6.8 39 7.4 ENE 11 15 6 8 1011.1 1011.0 0.0
31/09:00am 19.8 17.4 7.2 44 6.4 E 9 13 5 7 1011.4 1011.3 0.0
31/08:30am 17.9 14.8 7.3 50 5.4 E 13 19 7 10 1011.3 1011.2 0.0
31/08:00am 15.8 13.7 8.3 61 3.8 E 9 11 5 6 1011.6 1011.5 0.0
31/07:30am 13.0 11.9 8.3 73 2.3 ESE 4 7 2 4 1011.5 1011.4 0.0
31/07:00am 11.0 8.7 7.5 79 1.7 E 9 11 5 6 1011.3 1011.2 0.0
31/06:30am 7.9 5.6 5.5 85 1.1 E 7 9 4 5 1011.1 1011.0 0.0
31/06:00am 9.0 6.7 5.9 81 1.4 E 7 9 4 5 1011.0 1010.9 0.0
31/05:30am 9.4 7.4 6.3 81 1.4 E 6 7 3 4 1010.8 1010.7 0.0
31/05:00am 8.7 6.9 5.6 81 1.4 E 4 6 2 3 1010.7 1010.6 0.0
31/04:30am 8.9 6.7 5.1 77 1.7 E 6 6 3 3 1010.7 1010.6 0.0
31/04:00am 8.2 5.9 5.0 80 1.4 E 6 7 3 4 1010.7 1010.6 0.0
31/03:30am 7.7 5.2 4.7 81 1.3 E 7 9 4 5 1010.7 1010.6 0.0
31/03:00am 7.7 5.3 4.5 80 1.4 ESE 6 7 3 4 1010.8 1010.7 0.0
31/02:30am 8.6 6.4 5.2 79 1.5 SE 6 7 3 4 1010.8 1010.7 0.0
31/02:00am 8.9 7.0 4.7 75 1.9 S 4 6 2 3 1011.4 1011.3 0.0
31/01:30am 9.4 7.9 5.0 74 2.0 SSW 2 4 1 2 1011.7 1011.6 0.0
31/01:00am 10.4 9.4 5.8 73 2.1 CALM 0 0 0 0 1011.9 1011.8 0.0
31/12:30am 11.3 10.3 5.6 68 2.7 CALM 0 0 0 0 1012.0 1011.9 0.0
31/12:00am 10.8 9.7 5.1 68 2.6 NE 0 4 0 2 1011.8 1011.7 0.0
 
Date/Time
EDT
Temp
°C
App
Temp
°C
Dew
Point
Rel
Hum
%
Delta-T
°C
Wind Press
QNH
hPa
Press
MSL
hPa
Rain
since 9 am
mm
Dir
 
Spd
km/h
Gust
km/h
Spd
kts
Gust
kts
30/11:30pm 12.5 11.6 5.9 64 3.1 CALM 0 0 0 0 1012.1 1012.0 0.0
30/11:00pm 13.8 12.7 5.2 56 4.1 CALM 0 0 0 0 1011.9 1011.8 0.0
30/10:30pm 14.4 13.0 3.8 49 4.9 CALM 0 0 0 0 1012.1 1012.0 0.0
30/10:00pm 15.3 14.0 4.1 47 5.2 CALM 0 0 0 0 1012.2 1012.1 0.0
30/09:30pm 16.9 15.2 3.9 42 6.1 S 2 4 1 2 1012.1 1012.0 0.0
30/09:00pm 18.0 15.4 3.1 37 6.9 S 6 6 3 3 1011.9 1011.8 0.0
30/08:30pm 19.0 16.9 4.0 37 7.2 WSW 4 6 2 3 1011.9 1011.8 0.0
30/08:00pm 20.2 17.2 3.9 34 7.8 WSW 9 9 5 5 1011.7 1011.6 0.0
30/07:30pm 24.3 20.7 3.0 25 10.4 W 11 15 6 8 1011.5 1011.4 0.0
30/07:00pm 26.9 22.5 2.7 21 11.9 W 15 22 8 12 1011.3 1011.2 0.0
30/06:30pm 28.0 23.7 3.0 20 12.5 WSW 15 19 8 10 1011.0 1010.9 0.0
30/06:00pm 28.8 23.7 2.9 19 13.0 W 19 26 10 14 1011.0 1010.9 0.0
30/05:30pm 29.3 24.9 2.5 18 13.4 W 15 26 8 14 1010.9 1010.8 0.0
30/05:00pm 29.4 25.1 3.4 19 13.2 WNW 15 26 8 14 1011.0 1010.9 0.0
30/04:30pm 29.8 26.1 4.4 20 13.1 WSW 13 19 7 10 1011.2 1011.1 0.0
30/04:00pm 29.6 24.5 2.8 18 13.5 W 19 32 10 17 1011.5 1011.4 0.0
30/03:30pm 29.6 25.2 2.8 18 13.5 W 15 28 8 15 1011.6 1011.5 0.0
30/03:00pm 29.6 24.7 4.3 20 13.1 W 19 32 10 17 1011.9 1011.8 0.0
30/02:30pm 28.9 24.7 3.7 20 12.8 WNW 15 26 8 14 1012.4 1012.3 0.0
30/02:00pm 28.8 24.6 5.6 23 12.2 WSW 17 24 9 13 1012.7 1012.6 0.0
30/01:30pm 28.2 25.0 5.1 23 12.0 WNW 11 24 6 13 1013.1 1013.0 0.0
30/01:00pm 27.9 23.8 6.1 25 11.5 NW 17 26 9 14 1013.3 1013.2 0.0
30/12:30pm 27.4 23.7 6.2 26 11.2 NW 15 24 8 13 1013.5 1013.4 0.0
30/12:00pm 26.6 22.9 6.1 27 10.7 NW 15 28 8 15 1013.9 1013.8 0.0
30/11:30am 25.8 22.1 6.4 29 10.1 WNW 15 24 8 13 1014.3 1014.2 0.0
30/11:00am 24.7 22.8 7.4 33 9.1 NNW 7 15 4 8 1014.8 1014.7 0.0
30/10:30am 23.3 21.7 7.8 37 8.2 WSW 6 9 3 5 1015.3 1015.2 0.0
30/10:00am 21.6 19.9 7.4 40 7.4 NNE 6 11 3 6 1015.5 1015.4 0.0
30/09:30am 20.1 18.3 8.1 46 6.3 N 7 15 4 8 1015.4 1015.3 0.0
30/09:00am 18.5 16.9 8.7 53 5.1 ENE 7 11 4 6 1015.4 1015.3 0.0
30/08:30am 16.7 14.9 9.4 62 3.8 ENE 9 13 5 7 1015.2 1015.1 0.0
30/08:00am 14.9 13.0 9.1 68 3.0 ENE 9 13 5 7 1015.2 1015.1 0.0
30/07:30am 12.3 10.7 8.8 79 1.8 E 7 11 4 6 1015.2 1015.1 0.0
30/07:00am 9.7 7.4 7.6 87 1.0 E 9 11 5 6 1014.7 1014.6 0.0
30/06:30am 7.8 5.3 6.7 93 0.5 E 9 11 5 6 1014.5 1014.4 0.0
30/06:00am 7.2 4.2 5.8 91 0.6 E 11 13 6 7 1014.2 1014.1 0.0
30/05:30am 7.5 5.5 6.1 91 0.6 E 6 7 3 4 1014.2 1014.1 0.0
30/05:00am 8.0 5.5 6.5 90 0.7 ESE 9 9 5 5 1014.2 1014.1 0.0
30/04:30am 8.3 6.2 6.6 89 0.8 E 7 9 4 5 1014.1 1014.0 0.0
30/04:00am 8.5 6.4 6.8 89 0.8 E 7 9 4 5 1014.1 1014.0 0.0
30/03:30am 9.4 7.6 7.3 87 1.0 E 6 7 3 4 1014.2 1014.1 0.0
30/03:00am 9.5 7.9 7.9 90 0.8 ESE 6 9 3 5 1014.0 1013.9 0.0
30/02:30am 8.6 7.9 6.9 89 0.8 CALM 0 0 0 0 1014.3 1014.2 0.0
30/02:00am 8.9 7.8 6.7 86 1.0 NNE 2 4 1 2 1014.2 1014.1 0.0
30/01:30am 10.0 8.5 6.7 80 1.6 N 4 4 2 2 1014.5 1014.4 0.0
30/01:00am 11.3 9.9 9.0 86 1.2 N 6 6 3 3 1014.6 1014.5 0.0
30/12:30am 10.8 9.1 7.7 81 1.5 N 6 6 3 3 1014.8 1014.7 0.0
30/12:00am 11.9 10.6 9.3 84 1.3 NNE 6 7 3 4 1015.0 1014.9 0.0
 
Date/Time
EDT
Temp
°C
App
Temp
°C
Dew
Point
Rel
Hum
%
Delta-T
°C
Wind Press
QNH
hPa
Press
MSL
hPa
Rain
since 9 am
mm
Dir
 
Spd
km/h
Gust
km/h
Spd
kts
Gust
kts
29/11:30pm 10.7 8.6 5.7 71 2.3 NNE 6 7 3 4 1015.3 1015.2 0.0
29/11:00pm 11.9 10.1 5.5 65 3.0 NE 4 4 2 2 1015.5 1015.4 0.0
29/10:30pm 12.7 11.4 6.1 64 3.1 E 2 4 1 2 1015.6 1015.5 0.0
29/10:00pm 13.6 13.0 7.6 67 3.0 CALM 0 0 0 0 1015.8 1015.7 0.0
29/09:30pm 13.5 12.5 7.5 67 3.0 S 2 4 1 2 1015.7 1015.6 0.0
29/09:00pm 14.3 12.8 6.9 61 3.6 S 4 4 2 2 1015.6 1015.5 0.0
29/08:30pm 15.8 14.1 7.6 58 4.1 S 6 7 3 4 1015.4 1015.3 0.0
29/08:00pm 18.1 16.7 7.2 49 5.5 WSW 4 6 2 3 1015.3 1015.2 0.0
29/07:30pm 20.5 18.4 6.8 41 7.0 WSW 7 9 4 5 1015.1 1015.0 0.0
29/07:00pm 22.9 19.9 6.2 34 8.5 W 11 17 6 9 1014.8 1014.7 0.0
29/06:30pm 23.6 20.3 6.4 33 8.9 WSW 13 19 7 10 1014.7 1014.6 0.0
29/06:00pm 23.9 19.8 6.2 32 9.1 W 17 24 9 13 1014.7 1014.6 0.0
29/05:30pm 24.4 20.3 6.2 31 9.4 W 17 22 9 12 1014.7 1014.6 0.0
29/05:00pm 24.5 21.2 6.3 31 9.4 W 13 26 7 14 1014.7 1014.6 0.0
29/04:30pm 24.6 20.9 6.4 31 9.4 WNW 15 22 8 12 1015.0 1014.9 0.0
29/04:00pm 24.3 20.3 6.6 32 9.2 W 17 24 9 13 1015.3 1015.2 0.0
29/03:30pm 24.2 21.2 6.0 31 9.4 WSW 11 24 6 13 1015.5 1015.4 0.0
29/03:00pm 23.5 19.5 4.9 30 9.3 W 15 28 8 15 1016.0 1015.9 0.0
29/02:30pm 23.4 19.5 5.3 31 9.1 W 15 24 8 13 1016.5 1016.4 0.0
29/02:00pm 22.5 18.9 5.0 32 8.7 W 13 20 7 11 1016.8 1016.7 0.0
29/01:30pm 22.7 19.5 5.2 32 8.8 W 11 20 6 11 1017.2 1017.1 0.0
29/01:00pm 21.7 18.1 5.2 34 8.2 WSW 13 24 7 13 1017.4 1017.3 0.0
29/12:30pm 20.6 16.9 4.6 35 7.8 W 13 22 7 12 1017.9 1017.8 0.0
29/12:00pm 20.0 16.8 5.3 38 7.2 WSW 11 20 6 11 1018.4 1018.3 0.0
29/11:30am 19.1 15.4 4.5 38 7.0 W 13 22 7 12 1018.8 1018.7 0.0
29/11:00am 18.2 14.8 5.8 44 6.1 W 13 22 7 12 1019.0 1018.9 0.0
29/10:30am 17.2 13.3 5.5 46 5.7 SW 15 22 8 12 1019.3 1019.2 0.0
29/10:00am 16.9 12.7 5.5 47 5.5 SSW 17 26 9 14 1019.3 1019.2 0.0
29/09:30am 15.7 12.2 5.6 51 4.9 SW 13 22 7 12 1019.4 1019.3 0.0
29/09:00am 15.0 10.8 5.8 54 4.4 SSW 17 24 9 13 1019.2 1019.1 0.0
29/08:30am 13.3 10.0 6.2 62 3.4 WSW 13 15 7 8 1019.1 1019.0 0.0
29/08:00am 11.3 8.4 6.4 72 2.3 WSW 11 15 6 8 1018.9 1018.8 0.0
29/07:30am 9.4 6.1 6.3 81 1.4 W 13 17 7 9 1018.8 1018.7 0.0
29/07:00am 7.7 5.1 6.0 89 0.8 W 9 13 5 7 1018.6 1018.5 0.0
29/06:30am 6.2 3.9 5.6 96 0.3 W 7 9 4 5 1018.1 1018.0 0.0
29/06:00am 5.5 3.1 4.2 91 0.6 WSW 6 7 3 4 1017.7 1017.6 0.0
29/05:30am 7.2 4.9 5.5 89 0.8 W 7 9 4 5 1017.4 1017.3 0.0
29/05:00am 7.2 5.1 5.7 90 0.7 W 6 9 3 5 1017.2 1017.1 0.0
29/04:30am 8.0 5.6 6.8 92 0.6 W 9 11 5 6 1016.9 1016.8 0.0
29/04:00am 7.1 4.5 6.0 93 0.5 W 9 11 5 6 1016.6 1016.5 0.0
29/03:30am 7.6 5.4 6.4 92 0.6 W 7 9 4 5 1016.6 1016.5 0.0
29/03:00am 7.4 4.8 6.2 92 0.5 WSW 9 11 5 6 1016.5 1016.4 0.0
29/02:30am 8.6 5.8 7.1 90 0.7 WSW 11 13 6 7 1016.5 1016.4 0.0
29/02:00am 8.6 6.2 6.9 89 0.8 SW 9 11 5 6 1016.5 1016.4 0.0
29/01:30am 8.9 6.4 6.7 86 1.0 SW 9 9 5 5 1016.4 1016.3 0.0
29/01:00am 9.3 6.5 6.9 85 1.1 SW 11 13 6 7 1016.6 1016.5 0.0
29/12:30am 10.0 7.6 6.9 81 1.5 SW 9 11 5 6 1016.5 1016.4 0.0
29/12:00am 10.8 7.7 7.1 78 1.8 WSW 13 15 7 8 1016.3 1016.2 0.0
 
Date/Time
EDT
Temp
°C
App
Temp
°C
Dew
Point
Rel
Hum
%
Delta-T
°C
Wind Press
QNH
hPa
Press
MSL
hPa
Rain
since 9 am
mm
Dir
 
Spd
km/h
Gust
km/h
Spd
kts
Gust
kts
28/11:30pm 11.2 9.3 7.5 78 1.8 W 7 9 4 5 1016.1 1016.0 0.0
28/11:00pm 10.8 8.8 6.9 77 1.9 WSW 7 7 4 4 1015.9 1015.8 0.0
28/10:30pm 12.0 10.1 6.9 71 2.5 WSW 6 6 3 3 1015.8 1015.7 0.0
28/10:00pm 11.8 10.0 7.3 74 2.2 W 6 7 3 4 1015.6 1015.5 0.0
28/09:30pm 13.0 11.1 7.5 69 2.7 WSW 7 7 4 4 1015.5 1015.4 0.0
28/09:00pm 14.6 12.7 7.4 62 3.6 W 7 9 4 5 1015.1 1015.0 0.0
28/08:30pm 17.6 15.3 7.6 52 5.1 W 9 11 5 6 1014.5 1014.4 0.0
28/08:00pm 18.6 15.8 7.1 47 5.8 W 11 17 6 9 1014.0 1013.9 0.0
28/07:30pm 19.5 15.5 6.6 43 6.5 W 17 24 9 13 1013.9 1013.8 0.0
28/07:00pm 20.0 15.0 6.4 41 6.9 WSW 22 30 12 16 1013.7 1013.6 0.0
28/06:30pm 20.6 15.5 6.2 39 7.3 W 22 35 12 19 1013.5 1013.4 0.0
28/06:00pm 20.4 14.7 6.7 41 7.0 W 26 41 14 22 1013.3 1013.2 0.0
28/05:30pm 21.1 15.2 7.3 41 7.1 W 28 37 15 20 1013.3 1013.2 0.0

Other Formats:

Comma delimited format used in spreadsheet applications
http://www.bom.gov.au/fwo/IDV60801/IDV60801.94862.axf

JavaScript Object Notation format (JSON) in row-major order
http://www.bom.gov.au/fwo/IDV60801/IDV60801.94862.json